FW5361 Weather Reports


time (UTC)temp
C
wind
direction
speed
KPH
gust
KPH
rain 1hr
cm
rain 24hr
cm
rain mn
cm
humidity
%
barometer
mb
20260510142543 12 0 0.0 3.2 0.00 0.00 0.00 74 1014.3
20260510142039 12 0 0.0 3.2 0.00 0.00 0.00 75 1014.3
20260510141552 11 244 0.0 6.4 0.00 0.00 0.00 76 1014.1
20260510141040 11 0 1.6 6.4 0.00 0.00 0.00 74 1014.1
20260510140539 11 0 0.0 4.8 0.00 0.00 0.00 76 1014.0
20260510140053 11 221 0.0 4.8 0.00 0.00 0.00 76 1013.9
20260510135539 11 0 1.6 4.8 0.00 0.03 0.00 76 1013.9
20260510135042 11 0 0.0 3.2 0.00 0.03 0.00 78 1014.0
20260510134547 11 0 0.0 4.8 0.00 0.03 0.00 80 1013.9
20260510134039 11 0 0.0 4.8 0.00 0.03 0.00 79 1013.9
20260510133544 11 0 0.0 4.8 0.00 0.03 0.00 79 1013.7
20260510133053 11 0 0.0 0.0 0.00 0.03 0.00 81 1013.7
20260510132541 11 0 0.0 3.2 0.00 0.03 0.00 80 1013.7
20260510132039 11 0 0.0 3.2 0.00 0.03 0.00 79 1013.7
20260510131546 11 0 0.0 3.2 0.00 0.03 0.00 79 1013.6
20260510131041 11 0 0.0 3.2 0.00 0.03 0.00 80 1013.6
20260510130541 11 0 0.0 3.2 0.00 0.03 0.00 80 1013.4
20260510130051 11 0 0.0 3.2 0.00 0.03 0.00 80 1013.4
20260510125541 11 0 0.0 9.7 0.00 0.03 0.00 83 1013.5
20260510125039 11 0 0.0 9.7 0.00 0.03 0.00 82 1013.4
20260510124555 11 0 0.0 4.8 0.00 0.03 0.00 83 1013.4
20260510124039 11 0 0.0 4.8 0.00 0.03 0.00 83 1013.4
20260510123540 11 0 0.0 1.6 0.00 0.03 0.00 83 1013.2
20260510123053 11 0 0.0 1.6 0.00 0.03 0.00 83 1013.1
20260510122538 11 0 0.0 3.2 0.00 0.03 0.00 84 1013.0
20260510122042 11 0 0.0 3.2 0.00 0.03 0.00 83 1013.1
20260510121551 11 0 0.0 1.6 0.00 0.03 0.00 85 1013.0
20260510121042 11 201 0.0 0.0 0.00 0.03 0.00 84 1013.0
20260510120541 11 0 0.0 3.2 0.00 0.03 0.00 86 1012.8
20260510120052 11 0 0.0 3.2 0.00 0.03 0.00 86 1012.5
20260510115541 11 0 0.0 1.6 0.00 0.03 0.00 87 1012.4
20260510115039 11 0 0.0 1.6 0.00 0.03 0.00 88 1012.5
20260510114557 11 0 0.0 1.6 0.00 0.03 0.00 88 1012.3
20260510114039 11 0 0.0 3.2 0.00 0.03 0.00 88 1012.2
20260510113539 11 0 0.0 3.2 0.00 0.03 0.00 88 1012.4
20260510113048 11 0 0.0 3.2 0.00 0.03 0.00 89 1012.2
20260510112541 11 0 0.0 6.4 0.00 0.03 0.00 88 1011.9
20260510112045 11 0 1.6 8.0 0.00 0.03 0.00 88 1011.7
20260510111552 11 0 0.0 8.0 0.00 0.03 0.00 88 1011.6
20260510111038 11 174 0.0 4.8 0.00 0.03 0.00 88 1011.5
20260510110539 11 142 0.0 4.8 0.00 0.03 0.00 89 1011.3
20260510110050 11 0 0.0 4.8 0.00 0.03 0.00 88 1011.2
20260510105543 11 0 0.0 6.4 0.00 0.05 0.00 88 1011.1
20260510105042 11 0 0.0 6.4 0.00 0.05 0.00 88 1011.0
20260510104551 11 0 0.0 3.2 0.00 0.05 0.00 88 1011.1
20260510104042 11 0 0.0 3.2 0.00 0.05 0.00 88 1010.9
20260510103539 11 0 0.0 1.6 0.00 0.05 0.00 88 1010.9
20260510103055 11 0 0.0 0.0 0.00 0.05 0.00 88 1010.6
20260510102539 11 0 0.0 0.0 0.00 0.05 0.00 87 1010.5
20260510102041 11 0 0.0 0.0 0.00 0.05 0.00 87 1010.6
20260510101557 11 0 0.0 0.0 0.00 0.05 0.00 87 1010.5
20260510101039 11 0 0.0 4.8 0.00 0.05 0.00 87 1010.4
20260510100542 11 0 0.0 4.8 0.00 0.05 0.00 86 1010.2
20260510100115 12 203 0.0 4.8 0.00 0.05 0.00 86 1010.1
20260510095540 12 0 1.6 9.7 0.00 0.10 0.00 86 1010.2
20260510095040 12 0 1.6 9.7 0.00 0.10 0.00 85 1010.1
20260510094555 12 0 0.0 9.7 0.00 0.10 0.00 85 1009.9
20260510094039 12 146 3.2 9.7 0.00 0.10 0.00 84 1009.9
20260510093539 12 0 1.6 8.0 0.00 0.10 0.00 84 1009.7
20260510093053 12 158 0.0 8.0 0.00 0.10 0.00 84 1009.7
20260510092541 12 128 0.0 8.0 0.00 0.10 0.00 83 1009.5
20260510092040 12 134 0.0 6.4 0.00 0.10 0.00 82 1009.3
20260510091547 12 0 0.0 6.4 0.00 0.10 0.00 82 1009.2
20260510091039 13 0 0.0 12.9 0.00 0.10 0.00 81 1009.1
20260510090538 13 0 3.2 12.9 0.00 0.10 0.00 80 1009.0
20260510090046 13 213 3.2 9.7 0.00 0.10 0.00 81 1009.0
20260510085538 13 0 0.0 6.4 0.00 0.30 0.00 81 1008.9
20260510085039 13 150 0.0 8.0 0.00 0.30 0.00 81 1008.9
20260510084552 13 0 1.6 11.3 0.00 0.30 0.00 80 1008.8
20260510084039 13 122 1.6 11.3 0.00 0.30 0.00 80 1008.8
20260510083539 14 159 1.6 9.7 0.00 0.30 0.00 80 1008.5
20260510083100 14 175 1.6 8.0 0.00 0.30 0.00 79 1008.3
20260510082538 14 172 1.6 8.0 0.00 0.30 0.00 79 1008.4
20260510082039 14 172 1.6 11.3 0.00 0.30 0.00 79 1008.3
20260510081551 14 154 3.2 11.3 0.00 0.30 0.00 79 1008.4
20260510081040 13 145 3.2 6.4 0.00 0.30 0.00 80 1008.3
20260510080543 13 138 1.6 6.4 0.00 0.30 0.00 84 1008.1
20260510080051 13 141 0.0 3.2 0.00 0.30 0.00 86 1008.1
20260510075541 13 0 0.0 3.2 0.00 0.33 0.00 86 1008.2
20260510075039 12 0 0.0 1.6 0.00 0.33 0.00 88 1008.1
20260510074549 12 0 0.0 1.6 0.00 0.33 0.00 87 1008.1
20260510074040 12 0 0.0 0.0 0.00 0.33 0.00 88 1008.1
20260510073541 12 0 0.0 0.0 0.00 0.33 0.00 87 1008.1
20260510073052 12 0 0.0 8.0 0.00 0.33 0.00 87 1008.1
20260510072539 13 0 0.0 8.0 0.00 0.33 0.00 87 1008.2
20260510072039 13 0 1.6 8.0 0.00 0.33 0.00 87 1008.3
20260510071557 13 0 0.0 0.0 0.00 0.33 0.00 86 1008.3
20260510071042 13 0 0.0 0.0 0.00 0.33 0.00 86 1008.4
20260510070542 13 0 0.0 0.0 0.00 0.33 0.00 86 1008.4
20260510070052 13 0 0.0 0.0 0.00 0.33 0.00 85 1008.2
20260510065543 13 0 0.0 0.0 0.00 0.33 0.00 85 1008.2
20260510065042 13 0 0.0 0.0 0.00 0.33 0.00 84 1008.3
20260510064547 13 0 0.0 0.0 0.00 0.33 0.00 83 1008.4
20260510064039 13 0 0.0 3.2 0.00 0.33 0.00 83 1008.4
20260510063541 13 0 0.0 3.2 0.00 0.33 0.00 83 1008.4
20260510063051 13 0 0.0 0.0 0.00 0.33 0.00 83 1008.3
20260510062539 13 0 0.0 0.0 0.00 0.33 0.00 82 1008.2
20260510062039 13 0 0.0 0.0 0.00 0.33 0.00 82 1008.2
20260510061553 13 0 0.0 0.0 0.00 0.33 0.00 81 1008.2
20260510061039 13 0 0.0 0.0 0.00 0.33 0.00 80 1008.2
20260510060541 13 0 0.0 0.0 0.00 0.33 0.00 80 1008.2
20260510060051 13 0 0.0 0.0 0.00 0.33 0.00 79 1008.2
20260510055539 14 0 0.0 0.0 0.00 0.33 0.00 77 1008.3
20260510055041 14 0 0.0 0.0 0.00 0.33 0.00 76 1008.4
20260510054552 15 0 0.0 0.0 0.00 0.33 0.00 77 1008.4
20260510054039 15 0 0.0 4.8 0.00 0.33 0.00 75 1008.3
20260510053538 15 0 0.0 4.8 0.00 0.33 0.00 72 1008.5
20260510053050 16 0 0.0 4.8 0.00 0.33 0.00 75 1008.5
20260510052538 16 0 0.0 12.9 0.00 0.33 0.00 71 1008.4
20260510052038 16 150 0.0 12.9 0.00 0.33 0.00 72 1008.5
20260510051546 15 146 4.8 12.9 0.00 0.33 0.00 74 1008.7
20260510051040 15 173 1.6 4.8 0.00 0.33 0.00 74 1008.4
20260510050542 15 0 0.0 3.2 0.00 0.33 0.00 76 1008.0
20260510050050 15 0 0.0 3.2 0.00 0.33 0.00 73 1008.0
20260510045539 15 0 0.0 3.2 0.00 0.33 0.00 75 1007.9
20260510045039 15 132 0.0 4.8 0.00 0.33 0.00 75 1007.9
20260510044548 15 0 0.0 4.8 0.00 0.33 0.00 75 1008.0
20260510044042 15 0 0.0 3.2 0.00 0.33 0.00 77 1007.7
20260510043539 15 0 0.0 1.6 0.00 0.33 0.00 76 1007.7
20260510043055 15 0 0.0 1.6 0.00 0.33 0.00 77 1007.7
20260510042539 14 0 0.0 3.2 0.00 0.33 0.00 77 1007.7
20260510042039 14 0 0.0 3.2 0.00 0.33 0.00 77 1007.7
20260510041550 14 0 0.0 3.2 0.00 0.33 0.00 77 1007.6
20260510041041 15 0 0.0 3.2 0.00 0.33 0.00 77 1007.6
20260510040541 14 0 0.0 0.0 0.00 0.33 0.00 77 1007.5
20260510040058 14 0 0.0 0.0 0.00 0.33 0.00 78 1007.4
20260510035540 15 0 0.0 3.2 0.00 0.33 0.33 78 1007.6
20260510035040 15 0 0.0 3.2 0.00 0.33 0.33 77 1007.4
20260510034550 15 41 0.0 3.2 0.00 0.33 0.33 75 1007.5
20260510034040 15 0 0.0 1.6 0.00 0.33 0.33 80 1007.5
20260510033538 15 210 0.0 3.2 0.00 0.33 0.33 78 1007.4
20260510033110 15 0 0.0 3.2 0.00 0.33 0.33 79 1007.3
20260510032539 15 0 0.0 3.2 0.00 0.33 0.33 79 1007.4
20260510032043 15 0 0.0 3.2 0.00 0.33 0.33 78 1007.3
20260510031558 15 0 0.0 3.2 0.00 0.33 0.33 76 1007.3
20260510031041 15 0 0.0 1.6 0.00 0.33 0.33 77 1007.1
20260510030539 15 0 0.0 1.6 0.00 0.33 0.33 76 1007.3
20260510030051 15 0 0.0 1.6 0.00 0.33 0.33 76 1007.3
20260510025538 15 325 0.0 3.2 0.00 0.33 0.33 77 1007.2
20260510025039 15 0 0.0 3.2 0.00 0.33 0.33 75 1007.3
20260510024558 15 0 0.0 3.2 0.00 0.33 0.33 73 1007.3
20260510024038 15 0 0.0 0.0 0.00 0.33 0.33 72 1007.3
20260510023539 16 0 0.0 0.0 0.00 0.33 0.33 72 1007.3
20260510023052 16 0 0.0 0.0 0.00 0.33 0.33 70 1007.2
20260510022539 16 0 0.0 0.0 0.00 0.33 0.33 71 1007.2
20260510022039 16 0 0.0 0.0 0.00 0.33 0.33 71 1007.2
20260510021552 16 0 0.0 0.0 0.00 0.33 0.33 69 1007.1
20260510021039 16 0 0.0 0.0 0.00 0.33 0.33 68 1007.1
20260510020539 16 0 0.0 3.2 0.00 0.33 0.33 68 1007.1
20260510020052 16 0 0.0 3.2 0.00 0.33 0.33 68 1006.9
20260510015541 16 162 0.0 3.2 0.00 0.33 0.33 68 1006.9
20260510015041 17 0 0.0 3.2 0.00 0.33 0.33 65 1006.8
20260510014552 17 0 0.0 6.4 0.00 0.33 0.33 67 1006.7
20260510014041 17 151 1.6 6.4 0.00 0.33 0.33 64 1006.4
20260510013541 17 154 0.0 6.4 0.00 0.33 0.33 65 1006.2
20260510013053 17 0 0.0 6.4 0.00 0.33 0.33 66 1006.1
20260510012538 17 166 0.0 6.4 0.00 0.33 0.33 65 1006.1
20260510012038 17 0 1.6 8.0 0.00 0.33 0.33 63 1006.0
20260510011555 17 147 1.6 8.0 0.00 0.33 0.33 66 1005.9
20260510011039 17 5 0.0 8.0 0.00 0.33 0.33 69 1005.7
20260510010539 17 0 0.0 8.0 0.00 0.33 0.33 66 1005.5
20260510010055 17 0 0.0 8.0 0.00 0.33 0.33 65 1005.5
20260510005539 17 352 0.0 4.8 0.00 0.33 0.33 68 1005.4
20260510005039 17 0 0.0 4.8 0.00 0.33 0.33 65 1005.4
20260510004552 17 42 0.0 3.2 0.00 0.33 0.33 67 1005.6
20260510004040 17 0 0.0 8.0 0.00 0.33 0.33 64 1005.7
20260510003539 17 0 0.0 8.0 0.00 0.33 0.33 66 1005.7
20260510003104 17 0 0.0 6.4 0.00 0.33 0.33 61 1005.4
20260510002539 17 42 0.0 6.4 0.00 0.33 0.33 61 1005.4
20260510002040 18 0 0.0 6.4 0.00 0.33 0.33 64 1005.4
20260510001553 18 36 0.0 11.3 0.00 0.33 0.33 58 1005.3
20260510001040 18 315 0.0 11.3 0.00 0.33 0.33 58 1005.3
20260510000540 18 31 1.6 11.3 0.00 0.33 0.33 59 1005.3
20260510000050 19 160 1.6 16.1 0.00 0.33 0.33 58 1005.4
20260509235539 19 30 1.6 16.1 0.00 0.33 0.33 55 1005.4
20260509235039 19 132 1.6 9.7 0.00 0.33 0.33 54 1005.4
20260509234600 20 0 1.6 9.7 0.00 0.33 0.33 54 1005.4
20260509234039 20 110 0.0 9.7 0.00 0.33 0.33 54 1005.2
20260509233540 20 0 1.6 14.5 0.00 0.33 0.33 54 1005.3
20260509233050 20 228 4.8 14.5 0.00 0.33 0.33 53 1005.1
20260509232539 20 0 1.6 12.9 0.00 0.33 0.33 53 1005.1
20260509232039 20 0 1.6 12.9 0.00 0.33 0.33 53 1005.1
20260509231553 20 9 3.2 12.9 0.00 0.33 0.33 53 1004.9
20260509231038 20 5 1.6 12.9 0.00 0.33 0.33 55 1004.8
20260509230539 20 64 1.6 14.5 0.00 0.33 0.33 53 1004.9
20260509230059 20 171 1.6 17.7 0.00 0.33 0.33 54 1004.8
20260509225539 20 159 4.8 17.7 0.00 0.33 0.33 53 1004.9
20260509225039 20 26 4.8 22.5 0.00 0.33 0.33 53 1004.8
20260509224554 20 105 4.8 22.5 0.00 0.33 0.33 54 1005.0
20260509224039 20 31 4.8 22.5 0.00 0.33 0.33 53 1004.9
20260509223540 20 11 4.8 17.7 0.00 0.33 0.33 53 1004.9
20260509223051 20 49 6.4 17.7 0.00 0.33 0.33 54 1005.0
20260509222539 20 348 3.2 19.3 0.00 0.33 0.33 55 1005.1
20260509222039 20 351 4.8 19.3 0.00 0.33 0.33 53 1005.0
20260509221551 20 255 4.8 20.9 0.00 0.33 0.33 54 1004.9
20260509221039 20 82 4.8 20.9 0.00 0.33 0.33 52 1004.9
20260509220539 20 178 6.4 20.9 0.00 0.33 0.33 52 1005.0
20260509220051 20 32 6.4 17.7 0.00 0.33 0.33 53 1005.1
20260509215541 20 22 3.2 19.3 0.00 0.33 0.33 54 1005.1
20260509215038 20 163 4.8 20.9 0.00 0.33 0.33 54 1005.3
20260509214553 20 54 4.8 20.9 0.00 0.33 0.33 56 1005.2
20260509214041 20 168 4.8 20.9 0.00 0.33 0.33 53 1005.1
20260509213541 20 67 4.8 20.9 0.00 0.33 0.33 53 1005.2
20260509213058 20 157 6.4 20.9 0.00 0.33 0.33 56 1005.3
20260509212539 20 160 8.0 20.9 0.00 0.33 0.33 56 1005.2
20260509212040 20 93 4.8 17.7 0.00 0.33 0.33 55 1005.2
20260509211601 20 150 4.8 17.7 0.00 0.33 0.33 57 1005.2
20260509211040 20 192 4.8 17.7 0.00 0.33 0.33 56 1005.2
20260509210540 20 81 3.2 17.7 0.00 0.33 0.33 55 1005.1
20260509210055 20 78 4.8 22.5 0.00 0.33 0.33 57 1005.2
20260509205540 20 43 3.2 22.5 0.00 0.33 0.33 57 1005.3
20260509205118 20 32 4.8 29.0 0.00 0.33 0.33 56 1005.4
20260509204552 20 88 4.8 29.0 0.00 0.33 0.33 58 1005.4
20260509204040 20 49 3.2 19.3 0.00 0.33 0.33 56 1005.7
20260509203539 20 157 8.0 19.3 0.00 0.33 0.33 57 1005.7
20260509203052 20 49 3.2 19.3 0.00 0.33 0.33 56 1005.7
20260509202539 20 34 3.2 19.3 0.00 0.33 0.33 55 1005.6
20260509202039 20 113 4.8 19.3 0.00 0.33 0.33 55 1005.7
20260509201554 20 343 6.4 20.9 0.00 0.33 0.33 58 1005.7
20260509201039 19 154 4.8 20.9 0.00 0.33 0.33 58 1005.8
20260509200538 19 74 6.4 20.9 0.00 0.33 0.33 57 1005.8
20260509195539 19 47 4.8 22.5 0.00 0.33 0.33 59 1006.0
20260509195040 19 0 4.8 22.5 0.00 0.33 0.33 59 1006.0
20260509194549 20 313 6.4 17.7 0.00 0.33 0.33 59 1006.1
20260509194039 20 215 1.6 17.7 0.00 0.33 0.33 58 1006.0
20260509193539 19 66 4.8 19.3 0.00 0.33 0.33 57 1006.2
20260509193056 18 232 4.8 19.3 0.00 0.33 0.33 58 1006.2
20260509192539 18 57 4.8 16.1 0.00 0.33 0.33 58 1006.3
20260509192039 19 252 3.2 22.5 0.00 0.33 0.33 59 1006.3
20260509191550 19 137 3.2 25.7 0.00 0.33 0.33 59 1006.2
20260509191042 18 35 4.8 25.7 0.00 0.33 0.33 59 1006.3
20260509190539 18 67 6.4 22.5 0.00 0.33 0.33 59 1006.2
20260509190048 18 222 8.0 22.5 0.00 0.33 0.33 60 1006.4
20260509185539 19 47 8.0 22.5 0.00 0.33 0.33 60 1006.5
20260509185038 19 202 3.2 20.9 0.00 0.33 0.33 61 1006.5
20260509184552 18 13 4.8 20.9 0.00 0.33 0.33 62 1006.4
20260509184039 18 333 6.4 20.9 0.00 0.33 0.33 64 1006.5
20260509183545 18 352 3.2 19.3 0.00 0.33 0.33 66 1006.6
20260509183134 18 340 3.2 17.7 0.00 0.33 0.33 66 1006.5
20260509182540 18 285 6.4 17.7 0.00 0.33 0.33 66 1006.6
20260509182043 17 160 4.8 20.9 0.00 0.33 0.33 67 1006.7
20260509181608 18 207 4.8 20.9 0.00 0.33 0.33 66 1006.7
20260509181041 17 56 1.6 14.5 0.00 0.33 0.33 68 1006.9
20260509180541 17 360 4.8 22.5 0.00 0.33 0.33 66 1006.9
20260509180053 17 0 1.6 22.5 0.00 0.33 0.33 70 1006.9
20260509175539 17 339 6.4 22.5 0.00 0.33 0.33 67 1007.0
20260509175041 17 27 4.8 19.3 0.00 0.33 0.33 69 1007.1
20260509174555 17 156 6.4 14.5 0.00 0.33 0.33 68 1007.1
20260509174042 17 118 1.6 20.9 0.00 0.33 0.33 72 1007.3
20260509173541 17 173 6.4 20.9 0.00 0.33 0.33 70 1007.1
20260509173051 16 254 3.2 17.7 0.00 0.33 0.33 70 1007.1
20260509172542 17 0 3.2 16.1 0.00 0.33 0.33 70 1007.1
20260509172042 17 141 3.2 14.5 0.00 0.33 0.33 74 1007.1
20260509171552 17 77 6.4 14.5 0.00 0.33 0.33 74 1007.1
20260509171043 16 69 1.6 17.7 0.00 0.33 0.33 75 1007.2
20260509170545 16 53 4.8 17.7 0.00 0.33 0.33 75 1007.2
20260509170056 16 336 6.4 20.9 0.00 0.33 0.33 73 1007.2
20260509165541 16 50 6.4 20.9 0.00 0.33 0.33 74 1007.2
20260509165042 16 313 3.2 17.7 0.00 0.33 0.33 75 1007.1
20260509164602 16 17 4.8 17.7 0.00 0.33 0.33 77 1007.2
20260509164042 15 281 4.8 17.7 0.00 0.33 0.33 77 1007.1
20260509163542 15 59 3.2 16.1 0.00 0.33 0.33 80 1007.2
20260509163059 15 109 3.2 16.1 0.00 0.33 0.33 79 1007.2
20260509162543 15 192 3.2 19.3 0.00 0.33 0.33 81 1007.3
20260509162042 15 184 1.6 19.3 0.00 0.33 0.33 82 1007.3
20260509161552 15 72 3.2 17.7 0.00 0.33 0.33 81 1007.3
20260509161045 14 0 1.6 17.7 0.00 0.33 0.33 84 1007.3
20260509160542 14 28 4.8 16.1 0.00 0.33 0.33 83 1007.3
20260509160057 14 178 3.2 12.9 0.00 0.33 0.33 85 1007.2
20260509155540 13 0 0.0 14.5 0.00 0.33 0.33 87 1007.1
20260509155040 13 294 3.2 14.5 0.00 0.33 0.33 86 1007.2
20260509154556 13 64 1.6 12.9 0.00 0.33 0.33 87 1007.2
20260509154039 13 0 3.2 14.5 0.00 0.33 0.33 87 1007.1
20260509153539 13 40 3.2 14.5 0.00 0.33 0.33 87 1007.1
20260509153058 13 11 3.2 9.7 0.00 0.33 0.33 87 1006.9
20260509152540 13 360 1.6 6.4 0.00 0.33 0.33 88 1006.9
20260509152041 13 0 0.0 4.8 0.00 0.33 0.33 88 1007.0
20260509151556 13 0 0.0 8.0 0.00 0.33 0.33 88 1006.9
20260509151041 13 239 3.2 8.0 0.00 0.33 0.33 89 1007.0
20260509150542 13 88 1.6 11.3 0.00 0.33 0.33 88 1006.9
20260509150054 13 182 0.0 11.3 0.00 0.33 0.33 88 1006.9
20260509145542 13 71 1.6 11.3 0.00 0.33 0.33 88 1006.7
20260509145041 13 107 0.0 11.3 0.00 0.33 0.33 88 1006.8
20260509144549 13 17 1.6 12.9 0.00 0.33 0.33 89 1006.8
20260509144039 13 32 3.2 14.5 0.00 0.33 0.33 88 1006.7
20260509143540 13 39 4.8 14.5 0.00 0.33 0.33 88 1006.8
20260509143051 13 45 1.6 12.9 0.00 0.33 0.33 89 1006.7